This is the latest recevied weather packets stored in our database for station/object AA7VG. If no packets are shown the sender has not sent any weather packets the latest 10 day(s).
| Time | Temp. | Humidity | Pressure | Rain* | Wind** | Luminosity | Snow |
|---|---|---|---|---|---|---|---|
| 1777588181 | 15.56° C | 24% | 1020.1 hPa | 0 mm | - | - | - |
| 1777587877 | 15.56° C | 27% | 1020.3 hPa | 0 mm | - | - | - |
| 1777587573 | 16.67° C | 24% | 1020.5 hPa | 0 mm | - | - | - |
| 1777587268 | 17.22° C | 24% | 1020.4 hPa | 0 mm | - | - | - |
| 1777586964 | 16.67° C | 25% | 1020.2 hPa | 0 mm | - | - | - |
| 1777586660 | 16.67° C | 25% | 1020.3 hPa | 0 mm | - | - | - |
| 1777586355 | 16.11° C | 25% | 1020.4 hPa | 0 mm | - | - | - |
| 1777586055 | 15.56° C | 26% | 1020.4 hPa | 0 mm | - | - | - |
| 1777585754 | 15.56° C | 27% | 1020.7 hPa | 0 mm | - | - | - |
| 1777585454 | 16.67° C | 27% | 1020.5 hPa | 0 mm | - | - | - |
| 1777585150 | 16.67° C | 25% | 1020.4 hPa | 0 mm | - | - | - |
| 1777584845 | 16.67° C | 25% | 1020.8 hPa | 0 mm | - | - | - |
| 1777584543 | 16.67° C | 25% | 1020.7 hPa | 0 mm | - | - | - |
| 1777584239 | 16.11° C | 25% | 1020.7 hPa | 0 mm | - | - | - |
| 1777583939 | 15.56° C | 26% | 1020.8 hPa | 0 mm | - | - | - |
| 1777583635 | 15.56° C | 26% | 1020.8 hPa | 0 mm | - | - | - |
| 1777583334 | 15° C | 27% | 1020.8 hPa | 0 mm | - | - | - |
| 1777583029 | 15° C | 29% | 1020.8 hPa | 0 mm | - | - | - |
| 1777582726 | 16.11° C | 26% | 1021 hPa | 0 mm | - | - | - |
| 1777582421 | 16.11° C | 26% | 1020.9 hPa | 0 mm | - | - | - |
| 1777582115 | 16.11° C | 27% | 1020.9 hPa | 0 mm | - | - | - |
| 1777581815 | 16.67° C | 27% | 1020.9 hPa | 0 mm | - | - | - |
| 1777581513 | 15.56° C | 25% | 1021.2 hPa | 0 mm | - | - | - |
| 1777581210 | 16.11° C | 25% | 1021 hPa | 0 mm | - | - | - |
| 1777580904 | 15.56° C | 29% | 1021 hPa | 0 mm | - | - | - |
* Rain latest hour (hover to see other rain measurements)
** Current wind speed in m/s (hover to see current wind gust speed)